{"data":{"norad_id":55429,"intl_designator":"2023-014AQ","name":"STARLINK-5645","alt_names":[],"object_type":"PAYLOAD","status":"ACTIVE","operator":null,"country":"US","launch_date":"2023-01-31","launch_site_code":"AFWTR","launch_vehicle":null,"mission":null,"orbit_class":"UNKNOWN","rcs_meters":null,"size_class":null,"mass_kg":null,"dimensions":null,"purposes":["comms"],"wikipedia_slug":null,"has_3d_model":false,"image_url":null,"decayed_at":null,"tle_current":{"epoch":"2026-05-25T00:35:11.662656Z","epoch_age_seconds":63073,"freshness":"FRESH","line1":"1 55429U 23014AQ  26145.02444054 -.00001085  00000+0 -83166-4 0  9999","line2":"2 55429  69.9992 252.0967 0003044 268.3252  91.7558 14.98335415182998","mean_motion":14.98335415,"eccentricity":0.0003044,"inclination_deg":69.9992,"raan_deg":252.0967,"arg_perigee_deg":268.3252,"mean_anomaly_deg":91.7558,"bstar":-8.3166e-5,"rev_number":18299,"period_min":96.106651793984,"perigee_km":569.92351193533,"apogee_km":574.15477917274,"semimajor_km":6950.176145554,"source":"CELESTRAK","updated_at":"2026-05-25T13:38:17.799591Z"}}}